CW6164 Weather Reports


Display with metric or nautical units.
time (UTC)temp
F
wind
direction
speed
MPH
gust
MPH
rain 1hr
in
rain 24hr
in
rain mn
in
humidity
%
barometer
mb
20260509054541 55 241 2.0 7.0 0.16 0.86 0.28 95 1009.3
20260509054018 55 170 2.0 7.0 0.14 0.83 0.25 95 1009.3
20260509053518 55 249 2.0 7.0 0.14 0.81 0.23 95 1009.3
20260509053051 55 0 1.0 7.0 0.13 0.79 0.21 95 1009.3
20260509052518 55 292 2.0 6.0 0.14 0.78 0.20 95 1009.3
20260509052016 55 248 1.0 5.0 0.13 0.77 0.19 95 1009.3
20260509051534 55 199 1.0 5.0 0.14 0.77 0.19 95 1009.2
20260509051018 55 232 1.0 5.0 0.13 0.75 0.17 95 1009.3
20260509050516 55 0 1.0 5.0 0.15 0.75 0.17 95 1009.1
20260509050033 55 268 1.0 5.0 0.15 0.74 0.16 95 1009.2
20260509045516 55 0 1.0 5.0 0.16 0.73 0.15 95 1009.1
20260509045016 55 212 1.0 5.0 0.15 0.71 0.13 95 1009.2
20260509044538 55 205 1.0 5.0 0.15 0.70 0.12 95 1009.2
20260509044013 55 0 1.0 8.0 0.15 0.69 0.11 95 1009.1
20260509043514 55 209 1.0 8.0 0.13 0.67 0.09 95 1009.2
20260509043030 55 276 1.0 4.0 0.13 0.66 0.08 95 1009.2
20260509042514 55 219 0.0 3.0 0.12 0.64 0.06 95 1009.2
20260509042014 55 0 1.0 4.0 0.13 0.64 0.06 95 1009.1
20260509041534 55 188 1.0 4.0 0.12 0.63 0.05 95 1009.0
20260509041014 55 304 1.0 6.0 0.11 0.62 0.04 95 1009.1
20260509040514 55 202 2.0 6.0 0.09 0.60 0.02 95 1009.2
20260509040037 55 169 2.0 5.0 0.07 0.58 0.00 95 1009.3
20260509035517 55 0 2.0 6.0 0.06 0.57 0.57 95 1009.4
20260509035015 55 267 1.0 6.0 0.04 0.55 0.55 95 1009.4
20260509034535 55 212 1.0 5.0 0.05 0.55 0.55 95 1009.3
20260509034014 55 274 1.0 3.0 0.05 0.54 0.54 95 1009.4
20260509033516 55 279 1.0 3.0 0.05 0.54 0.54 95 1009.4
20260509033033 55 0 1.0 6.0 0.05 0.52 0.52 94 1009.3
20260509032515 55 214 1.0 6.0 0.05 0.52 0.52 94 1009.4
20260509032020 55 187 1.0 5.0 0.05 0.51 0.51 94 1009.3
20260509031537 55 273 0.0 5.0 0.06 0.51 0.51 94 1009.4
20260509031016 55 180 1.0 5.0 0.07 0.51 0.51 94 1009.5
20260509030516 55 223 2.0 5.0 0.08 0.51 0.51 94 1009.7
20260509030030 55 209 1.0 3.0 0.10 0.51 0.51 94 1009.7
20260509025513 55 193 0.0 3.0 0.12 0.51 0.51 94 1009.7
20260509025013 55 211 1.0 3.0 0.14 0.51 0.51 94 1009.5
20260509024536 55 215 1.0 3.0 0.14 0.50 0.50 94 1009.5
20260509024018 55 153 1.0 4.0 0.13 0.49 0.49 94 1009.8
20260509023518 55 194 1.0 4.0 0.14 0.49 0.49 94 1009.9
20260509023035 55 249 2.0 4.0 0.14 0.48 0.48 94 1010.0
20260509022522 55 0 1.0 3.0 0.13 0.47 0.47 94 1010.3
20260509022016 55 192 1.0 4.0 0.13 0.46 0.46 94 1010.1
20260509021534 55 238 1.0 5.0 0.12 0.45 0.45 94 1010.1
20260509021016 55 0 1.0 6.0 0.11 0.44 0.44 94 1010.1
20260509020521 55 186 1.0 6.0 0.09 0.42 0.42 94 1010.0
20260509020039 55 220 1.0 4.0 0.08 0.41 0.41 94 1010.0
20260509015518 55 0 1.0 5.0 0.07 0.39 0.39 94 1010.0
20260509015020 55 207 1.0 5.0 0.05 0.37 0.37 94 1009.9
20260509014536 55 216 2.0 4.0 0.04 0.36 0.36 94 1009.8
20260509014021 55 206 1.0 6.0 0.04 0.36 0.36 94 1009.8
20260509013521 55 236 2.0 6.0 0.03 0.35 0.35 94 1009.8
20260509013034 55 209 1.0 5.0 0.03 0.34 0.34 94 1009.8
20260509012518 55 0 0.0 3.0 0.02 0.33 0.33 94 1009.9
20260509012018 55 0 1.0 3.0 0.03 0.33 0.33 94 1009.7
20260509011532 55 238 1.0 3.0 0.04 0.33 0.33 94 1009.7
20260509011017 55 259 1.0 3.0 0.05 0.33 0.33 93 1009.6
20260509010515 55 198 1.0 3.0 0.06 0.33 0.33 93 1009.6
20260509010034 55 225 0.0 3.0 0.08 0.33 0.33 93 1009.6
20260509005520 55 213 0.0 3.0 0.12 0.32 0.32 93 1009.5
20260509005017 55 0 0.0 3.0 0.13 0.32 0.32 93 1009.4
20260509004537 55 188 1.0 3.0 0.14 0.32 0.32 93 1009.2
20260509004018 55 0 0.0 3.0 0.15 0.32 0.32 93 1009.4
20260509003517 55 276 0.0 4.0 0.16 0.32 0.32 93 1009.4
20260509003039 55 221 0.0 4.0 0.16 0.31 0.31 93 1009.2
20260509002519 55 0 0.0 4.0 0.16 0.31 0.31 93 1009.4
20260509002018 55 263 1.0 4.0 0.16 0.30 0.30 93 1009.6
20260509001532 55 0 1.0 4.0 0.16 0.29 0.29 93 1009.7
20260509001020 55 340 1.0 4.0 0.15 0.27 0.27 92 1009.8
20260509000517 55 284 1.0 4.0 0.15 0.26 0.26 92 1009.8
20260509000034 55 275 1.0 4.0 0.15 0.25 0.25 92 1009.7
20260508235518 55 0 1.0 3.0 0.11 0.20 0.20 92 1009.7
20260508235019 56 331 1.0 3.0 0.11 0.19 0.19 92 1009.7
20260508234540 56 0 0.0 3.0 0.11 0.18 0.18 92 1009.7
20260508234018 56 187 0.0 2.0 0.11 0.17 0.17 92 1009.7
20260508233518 56 0 0.0 3.0 0.11 0.16 0.16 92 1009.8
20260508233037 56 333 1.0 3.0 0.11 0.15 0.15 92 1009.8
20260508232518 56 327 0.0 3.0 0.11 0.14 0.14 92 1009.9
20260508232018 56 0 1.0 3.0 0.11 0.14 0.14 91 1010.0
20260508231540 56 24 0.0 3.0 0.11 0.13 0.13 91 1010.1
20260508231018 56 329 1.0 3.0 0.10 0.12 0.12 91 1010.0
20260508230517 56 0 1.0 2.0 0.09 0.11 0.11 90 1009.7
20260508230039 56 0 0.0 2.0 0.08 0.10 0.10 90 1009.9
20260508225521 56 0 1.0 2.0 0.07 0.08 0.08 89 1010.0
20260508225019 56 5 0.0 5.0 0.07 0.08 0.08 89 1009.8
20260508224534 56 0 0.0 5.0 0.07 0.07 0.07 88 1009.8
20260508224017 57 334 1.0 5.0 0.06 0.06 0.06 87 1009.9
20260508223517 57 30 2.0 6.0 0.05 0.05 0.05 86 1009.9
20260508223040 57 12 2.0 6.0 0.04 0.04 0.04 85 1010.0
20260508222518 58 334 1.0 8.0 0.03 0.03 0.03 83 1010.0
20260508222021 58 360 3.0 8.0 0.03 0.03 0.03 81 1010.0
20260508221538 59 347 1.0 5.0 0.02 0.02 0.02 80 1009.9
20260508221019 59 339 2.0 5.0 0.02 0.02 0.02 78 1009.8
20260508220517 59 320 1.0 4.0 0.02 0.02 0.02 76 1009.8
20260508220039 60 0 1.0 4.0 0.02 0.02 0.02 75 1009.8
20260508215522 60 308 1.0 11.0 0.01 0.01 0.01 72 1009.7
20260508215018 61 294 3.0 11.0 0.01 0.01 0.01 69 1009.4
20260508214545 61 307 2.0 4.0 0.00 0.00 0.00 68 1009.3
20260508214018 61 0 1.0 5.0 0.00 0.00 0.00 67 1009.4
20260508213517 61 0 1.0 5.0 0.00 0.00 0.00 66 1009.3
20260508213031 62 315 2.0 9.0 0.00 0.00 0.00 64 1009.3
20260508212518 62 0 2.0 11.0 0.00 0.00 0.00 63 1009.4
20260508212018 63 292 4.0 17.0 0.00 0.00 0.00 60 1009.3
20260508211541 63 286 5.0 17.0 0.00 0.00 0.00 58 1009.4
20260508211020 63 119 4.0 10.0 0.00 0.00 0.00 57 1009.3
20260508210518 63 146 2.0 8.0 0.00 0.00 0.00 61 1009.3
20260508210035 64 161 1.0 8.0 0.00 0.00 0.00 60 1009.2
20260508205517 64 92 1.0 8.0 0.00 0.00 0.00 59 1009.1
20260508205017 65 205 3.0 8.0 0.00 0.00 0.00 57 1009.2
20260508204534 65 334 2.0 8.0 0.00 0.00 0.00 57 1009.1
20260508204017 65 186 2.0 7.0 0.00 0.00 0.00 55 1009.1
20260508203517 65 182 2.0 7.0 0.00 0.00 0.00 55 1009.2
20260508203037 65 153 1.0 4.0 0.00 0.00 0.00 57 1009.1
20260508202515 65 201 0.0 4.0 0.00 0.00 0.00 58 1009.3
20260508202016 65 229 2.0 4.0 0.00 0.00 0.00 57 1009.2
20260508201536 65 0 1.0 4.0 0.00 0.00 0.00 57 1009.4
20260508201018 65 192 2.0 5.0 0.00 0.00 0.00 56 1009.5
20260508200518 65 282 1.0 5.0 0.00 0.00 0.00 56 1009.6
20260508200035 65 293 1.0 5.0 0.00 0.00 0.00 55 1009.6
20260508195517 65 0 1.0 5.0 0.00 0.00 0.00 56 1009.7
20260508195017 65 313 2.0 7.0 0.00 0.00 0.00 56 1009.8
20260508194532 65 243 1.0 7.0 0.00 0.00 0.00 56 1009.9
20260508194017 65 234 1.0 5.0 0.00 0.00 0.00 55 1009.9
20260508193517 65 226 1.0 8.0 0.00 0.00 0.00 55 1009.9
20260508193044 65 215 2.0 8.0 0.00 0.00 0.00 55 1010.0
20260508192518 65 235 1.0 8.0 0.00 0.00 0.00 55 1010.1
20260508192013 65 169 3.0 8.0 0.00 0.00 0.00 55 1010.2
20260508191540 65 318 2.0 8.0 0.00 0.00 0.00 55 1010.2
20260508191016 64 183 2.0 7.0 0.00 0.00 0.00 57 1010.3
20260508190517 64 309 1.0 5.0 0.00 0.00 0.00 56 1010.4
20260508190036 64 178 1.0 7.0 0.00 0.00 0.00 57 1010.5
20260508185518 64 231 3.0 9.0 0.00 0.00 0.00 55 1010.6
20260508185018 64 314 2.0 9.0 0.00 0.00 0.00 55 1010.7
20260508184532 64 184 3.0 10.0 0.00 0.00 0.00 54 1010.7
20260508184017 64 267 2.0 10.0 0.00 0.00 0.00 54 1010.9
20260508183518 65 290 2.0 9.0 0.00 0.00 0.00 54 1010.8
20260508183034 65 323 2.0 10.0 0.00 0.00 0.00 54 1010.8
20260508182518 65 332 2.0 11.0 0.00 0.00 0.00 54 1010.8
20260508182017 65 205 5.0 17.0 0.00 0.00 0.00 54 1010.9
20260508181534 65 261 6.0 17.0 0.00 0.00 0.00 53 1011.1
20260508181017 65 270 3.0 9.0 0.00 0.00 0.00 53 1011.2
20260508180518 65 148 4.0 12.0 0.00 0.00 0.00 52 1011.0
20260508180038 64 304 3.0 12.0 0.00 0.00 0.00 53 1011.2
20260508175517 64 123 2.0 11.0 0.00 0.00 0.00 53 1011.2
20260508175017 64 243 3.0 11.0 0.00 0.00 0.00 53 1011.2
20260508174539 64 5 3.0 12.0 0.00 0.00 0.00 52 1011.2
20260508174017 65 264 4.0 12.0 0.00 0.00 0.00 51 1011.2
20260508173515 65 162 4.0 11.0 0.00 0.00 0.00 51 1011.2
20260508173035 66 250 3.0 8.0 0.00 0.00 0.00 53 1011.3
20260508172518 67 239 3.0 10.0 0.00 0.00 0.00 52 1011.3
20260508172018 67 178 4.0 11.0 0.00 0.00 0.00 53 1011.3
20260508171536 67 231 4.0 11.0 0.00 0.00 0.00 52 1011.4
20260508171017 67 231 2.0 12.0 0.00 0.00 0.00 53 1011.5
20260508170517 68 206 4.0 12.0 0.00 0.00 0.00 55 1011.6
20260508170033 67 315 4.0 12.0 0.00 0.00 0.00 53 1011.7
20260508165515 67 297 2.0 12.0 0.00 0.00 0.00 54 1011.7
20260508165017 66 199 4.0 12.0 0.00 0.00 0.00 56 1011.8
20260508164537 65 103 4.0 11.0 0.00 0.00 0.00 53 1011.9
20260508164017 64 308 5.0 11.0 0.00 0.00 0.00 53 1012.2
20260508163517 64 260 2.0 7.0 0.00 0.00 0.00 55 1012.3
20260508163036 64 221 1.0 10.0 0.00 0.00 0.00 57 1012.3
20260508162517 65 205 2.0 11.0 0.00 0.00 0.00 55 1012.3
20260508162017 65 236 2.0 11.0 0.00 0.00 0.00 54 1012.4
20260508161535 64 309 4.0 11.0 0.00 0.00 0.00 54 1012.4
20260508161017 63 101 3.0 11.0 0.00 0.00 0.00 55 1012.4
20260508160517 64 173 4.0 12.0 0.00 0.00 0.00 54 1012.5
20260508160037 65 221 5.0 12.0 0.00 0.00 0.00 55 1012.4
20260508155519 64 255 3.0 10.0 0.00 0.00 0.00 55 1012.4
20260508155018 64 238 3.0 11.0 0.00 0.00 0.00 54 1012.5
20260508154532 64 208 2.0 11.0 0.00 0.00 0.00 54 1012.6
20260508154017 64 175 4.0 9.0 0.00 0.00 0.00 54 1012.6
20260508153518 63 239 3.0 8.0 0.00 0.00 0.00 56 1012.6
20260508153036 63 271 3.0 10.0 0.00 0.00 0.00 55 1012.6
20260508152516 63 179 3.0 11.0 0.00 0.00 0.00 55 1012.7
20260508152021 64 175 4.0 11.0 0.00 0.00 0.00 54 1012.7
20260508151533 64 259 5.0 11.0 0.00 0.00 0.00 53 1012.7
20260508151016 64 0 3.0 10.0 0.00 0.00 0.00 56 1012.7
20260508150518 64 306 3.0 9.0 0.00 0.00 0.00 56 1012.8
20260508150032 63 294 2.0 11.0 0.00 0.00 0.00 54 1012.8
20260508145517 63 192 4.0 13.0 0.00 0.00 0.00 54 1012.9
20260508145016 63 138 3.0 13.0 0.00 0.00 0.00 56 1012.8
20260508144537 63 96 4.0 13.0 0.00 0.00 0.00 54 1012.9
20260508144015 63 285 3.0 9.0 0.00 0.00 0.00 56 1012.9
20260508143518 63 194 4.0 9.0 0.00 0.00 0.00 55 1013.0
20260508143034 62 254 2.0 11.0 0.00 0.00 0.00 57 1013.0
20260508142517 61 261 5.0 13.0 0.00 0.00 0.00 56 1013.0
20260508142015 61 193 4.0 13.0 0.00 0.00 0.00 55 1013.0
20260508141536 61 214 3.0 11.0 0.00 0.00 0.00 57 1013.0
20260508141016 61 263 3.0 11.0 0.00 0.00 0.00 56 1013.0
20260508140516 61 259 4.0 11.0 0.00 0.00 0.00 56 1013.2
20260508140035 61 194 2.0 12.0 0.00 0.00 0.00 57 1013.2
20260508135516 60 272 5.0 12.0 0.00 0.00 0.00 56 1013.3
20260508135016 60 27 3.0 11.0 0.00 0.00 0.00 56 1013.2
20260508134535 60 175 4.0 13.0 0.00 0.00 0.00 55 1013.2
20260508134017 60 310 2.0 13.0 0.00 0.00 0.00 57 1013.3
20260508133517 60 115 3.0 13.0 0.00 0.00 0.00 56 1013.3
20260508133034 59 360 3.0 11.0 0.00 0.00 0.00 57 1013.4
20260508132515 59 242 4.0 12.0 0.00 0.00 0.00 56 1013.4
20260508132015 58 311 4.0 12.0 0.00 0.00 0.00 57 1013.5
20260508131539 58 296 3.0 11.0 0.00 0.00 0.00 57 1013.4
20260508131018 58 166 2.0 10.0 0.00 0.00 0.00 57 1013.4
20260508130519 57 307 3.0 10.0 0.00 0.00 0.00 57 1013.3
20260508130036 57 202 3.0 10.0 0.00 0.00 0.00 58 1013.3
20260508125519 56 258 4.0 10.0 0.00 0.00 0.00 57 1013.2
20260508125016 56 196 4.0 10.0 0.00 0.00 0.00 58 1013.2
20260508124534 56 175 2.0 9.0 0.00 0.00 0.00 58 1013.4
20260508124019 56 242 3.0 13.0 0.00 0.00 0.00 59 1013.4
20260508123517 55 198 2.0 13.0 0.00 0.00 0.00 59 1013.4
20260508123034 55 234 4.0 13.0 0.00 0.00 0.00 59 1013.6
20260508122516 54 205 3.0 8.0 0.00 0.00 0.00 60 1013.6
20260508122017 54 219 2.0 8.0 0.00 0.00 0.00 60 1013.5
20260508121535 54 176 1.0 7.0 0.00 0.00 0.00 61 1013.6
20260508121018 53 291 2.0 7.0 0.00 0.00 0.00 61 1013.5
20260508120516 53 180 2.0 7.0 0.00 0.00 0.00 61 1013.4
20260508120040 53 286 2.0 6.0 0.00 0.00 0.00 62 1013.4
20260508115517 52 167 2.0 6.0 0.00 0.00 0.00 62 1013.3
20260508115017 52 229 3.0 5.0 0.00 0.00 0.00 62 1013.3
20260508114541 52 150 2.0 5.0 0.00 0.00 0.00 62 1013.3
20260508114018 51 193 2.0 6.0 0.00 0.00 0.00 63 1013.2
20260508113517 51 247 2.0 6.0 0.00 0.00 0.00 63 1013.2
20260508113041 50 69 1.0 4.0 0.00 0.00 0.00 64 1013.2
20260508112517 50 291 1.0 4.0 0.00 0.00 0.00 64 1013.2
20260508112019 50 211 1.0 4.0 0.00 0.00 0.00 65 1013.2
20260508111542 49 250 1.0 4.0 0.00 0.00 0.00 65 1013.0
20260508111016 49 211 1.0 4.0 0.00 0.00 0.00 65 1012.9
20260508110517 49 287 1.0 4.0 0.00 0.00 0.00 65 1013.0
20260508110033 49 217 1.0 5.0 0.00 0.00 0.00 65 1012.9
20260508105518 49 259 1.0 6.0 0.00 0.00 0.00 65 1012.9
20260508105020 49 246 1.0 6.0 0.00 0.00 0.00 65 1012.9
20260508104531 49 242 1.0 3.0 0.00 0.00 0.00 65 1012.8
20260508104017 49 246 1.0 4.0 0.00 0.00 0.00 65 1012.9
20260508103516 49 0 0.0 4.0 0.00 0.00 0.00 65 1012.9
20260508103035 49 182 1.0 4.0 0.00 0.00 0.00 65 1012.8
20260508102517 49 178 1.0 4.0 0.00 0.00 0.00 65 1012.8
20260508102017 49 247 0.0 4.0 0.00 0.00 0.00 65 1012.8
20260508101531 49 254 0.0 4.0 0.00 0.00 0.00 64 1012.7
20260508101017 50 213 1.0 4.0 0.00 0.00 0.00 64 1012.7
20260508100517 50 242 1.0 4.0 0.00 0.00 0.00 63 1012.7
20260508100035 50 281 1.0 4.0 0.00 0.00 0.00 63 1012.7
20260508095517 50 244 1.0 4.0 0.00 0.00 0.00 63 1012.7
20260508095017 50 139 2.0 5.0 0.00 0.00 0.00 63 1012.7
20260508094535 50 239 1.0 5.0 0.00 0.00 0.00 63 1012.7
20260508094016 50 178 1.0 4.0 0.00 0.00 0.00 64 1012.7
20260508093518 50 209 1.0 6.0 0.00 0.00 0.00 64 1012.8
20260508093033 50 250 1.0 6.0 0.00 0.00 0.00 64 1012.8
20260508092515 50 244 2.0 6.0 0.00 0.00 0.00 65 1012.9
20260508092015 50 240 0.0 3.0 0.00 0.00 0.00 65 1012.9
20260508091538 51 270 0.0 3.0 0.00 0.00 0.00 63 1012.8
20260508091014 51 286 1.0 3.0 0.00 0.00 0.00 63 1012.9
20260508090517 51 0 0.0 3.0 0.00 0.00 0.00 62 1012.9
20260508090035 52 227 0.0 7.0 0.00 0.00 0.00 62 1013.0
20260508085515 52 284 1.0 7.0 0.00 0.00 0.00 63 1013.0
20260508085016 52 221 0.0 2.0 0.00 0.00 0.00 64 1013.1
20260508084532 52 0 0.0 2.0 0.00 0.00 0.00 64 1013.0
20260508084020 52 0 0.0 3.0 0.00 0.00 0.00 65 1013.0
20260508083518 52 259 0.0 3.0 0.00 0.00 0.00 64 1013.1
20260508083037 52 251 0.0 4.0 0.00 0.00 0.00 64 1013.3
20260508082517 52 0 1.0 4.0 0.00 0.00 0.00 63 1013.4
20260508082014 52 182 1.0 7.0 0.00 0.00 0.00 63 1013.4
20260508081544 52 0 1.0 7.0 0.00 0.00 0.00 62 1013.4
20260508081017 52 280 1.0 5.0 0.00 0.00 0.00 62 1013.4
20260508080518 52 226 1.0 5.0 0.00 0.00 0.00 62 1013.3
20260508080034 52 218 1.0 6.0 0.00 0.00 0.00 62 1013.3
20260508075517 52 295 2.0 6.0 0.00 0.00 0.00 61 1013.3
20260508075016 53 297 1.0 4.0 0.00 0.00 0.00 60 1013.3
20260508074534 53 277 2.0 4.0 0.00 0.00 0.00 60 1013.4
20260508074016 53 242 1.0 5.0 0.00 0.00 0.00 60 1013.4
20260508073515 53 288 1.0 6.0 0.00 0.00 0.00 59 1013.3
20260508073034 52 296 1.0 6.0 0.00 0.00 0.00 60 1013.4
20260508072517 52 272 2.0 6.0 0.00 0.00 0.00 60 1013.3
20260508072016 52 182 1.0 4.0 0.00 0.00 0.00 60 1013.4
20260508071530 52 250 0.0 4.0 0.00 0.00 0.00 60 1013.3
20260508071017 52 271 1.0 4.0 0.00 0.00 0.00 60 1013.3
20260508070517 52 255 1.0 7.0 0.00 0.00 0.00 60 1013.4
20260508070036 52 217 0.0 7.0 0.00 0.00 0.00 60 1013.4
20260508065518 52 250 1.0 7.0 0.00 0.00 0.00 59 1013.3
20260508065017 52 213 3.0 7.0 0.00 0.00 0.00 59 1013.4
20260508064536 52 282 1.0 7.0 0.00 0.00 0.00 59 1013.6
20260508064021 52 49 1.0 8.0 0.00 0.00 0.00 59 1013.5
20260508063521 52 221 2.0 8.0 0.00 0.00 0.00 59 1013.5
20260508063035 52 259 2.0 8.0 0.00 0.00 0.00 59 1013.6
20260508062516 52 310 1.0 8.0 0.00 0.00 0.00 60 1013.7
20260508062017 52 220 2.0 8.0 0.00 0.00 0.00 60 1013.6
20260508061534 52 240 2.0 8.0 0.00 0.00 0.00 60 1013.6
20260508061015 52 213 2.0 5.0 0.00 0.00 0.00 60 1013.6
20260508060519 52 241 2.0 7.0 0.00 0.00 0.00 60 1013.6
20260508060033 52 201 3.0 8.0 0.00 0.00 0.00 60 1013.6
20260508055517 52 296 2.0 8.0 0.00 0.00 0.00 60 1013.8
20260508055017 52 226 2.0 7.0 0.00 0.00 0.00 60 1013.7